Regional Weather Roundup
Issued by NWS

Home | Current Version | Previous Version | Text Only | Print | Product List | Glossary On
Versions: 1 2 3 4 5 6 7 8 9 10 11 12 13 14 15 16 17 18 19 20 21 22 23 24 25 26 27 28 29 30 31 32 33 34 35 36 37 38 39 40 41 42 43 44 45 46 47 48 49 50
000
ASUS45 KTFX 172004
RWRMT
MONTANA HOURLY WEATHER ROUNDUP
NATIONAL WEATHER SERVICE GREAT FALLS MT
204 PM MDT WED SEP 17 2014

NOTE: "FAIR" INDICATES FEW OR NO CLOUDS BELOW 12000 FEET WITH NO
SIGNIFICANT WEATHER AND/OR OBSTRUCTIONS TO VISIBILITY.

* THESE STATIONS ARE NOT UNDER NWS QUALITY CONTROL. THEY DO NOT
   REPORT WEATHER SUCH AS PRECIPITATION OR FOG.

MTZ001>007-043-172100-
WEST OF THE DIVIDE
CITY           SKY/WX    TMP DP  RH WIND       PRES   REMARKS
KALISPELL      PTCLDY    75  46  36 E6        29.83F
MISSOULA       PTSUNNY   77  46  33 S3        29.86F
BUTTE          PTSUNNY   79  43  28 S6        30.00F
MULLAN PASS    PTSUNNY   70  41  35 CALM      30.00F
* ESSEX        N/A       75  46  36 NW4G9      N/A
* LINCOLN      N/A       79  46  31 W3         N/A
* LOOKOUT PASS N/A       74  46  37 SW2G7      N/A
* POLSON       N/A       79  48  34 S2G7       N/A
* RONAN APT    PTSUNNY   75  48  39 N/A        N/A
* SEELEY LAKE  N/A       79  44  29 S3         N/A
* THOMP F APT  PTCLDY    73  40  30 S6G13      N/A
$$

MTZ008-052>055-172100-
SOUTHWEST MONTANA
CITY           SKY/WX    TMP DP  RH WIND       PRES   REMARKS
BOZEMAN        PTCLDY    79  45  30 CALM      29.95F
DILLON         PTSUNNY   75  46  36 W6        29.99F
* THREE FORKS  PTCLDY    75  75 100 N/A        N/A
* BOULDER HILL N/A       72  43  35 S12        N/A
* MONIDA PASS  N/A       70  40  34 SE9        N/A
* RAYNOLDS PAS N/A       73  49  43 SE9G16     N/A
* WHITEHALL    N/A       77  48  36 NW3        N/A
* WISE RIVER   N/A       71  43  37 W6         N/A
$$

MTZ009>010-012-014-046-048-049-054-172100-
EAST SLOPES AND CENTRAL MONTANA
CITY           SKY/WX    TMP DP  RH WIND       PRES   REMARKS
CUT BANK       PTCLDY    81  41  24 SE8       29.86F
GREAT FALLS    PTCLDY    82  48  31 S6        29.86F
HELENA         PTSUNNY   75  50  42 NE6       29.90F
* CONRAD       PTSUNNY   81  48  32 N/A        N/A
* EAST GLACIER N/A       77  42  29 W12G21     N/A
* MONARCH      N/A       77  38  25 SW9G16     N/A
* PENDROY      N/A       79  48  34 S9G14      N/A
* ROGERS PASS  N/A       75  42  31 SE9G15     N/A
* SAINT MARY   N/A       77  41  28 SW7G12     N/A
* SWEET GRASS  N/A       79  37  22 S12        N/A
$$

MTZ011-013-016-021-035-040-045-047-050-051-172100-
NORTH CENTRAL MONTANA
CITY           SKY/WX    TMP DP  RH WIND       PRES   REMARKS
HAVRE          SUNNY     79  48  34 SW3       29.83F
LEWISTOWN      SUNNY     84  46  26 NE6       29.91F
* CHESTER      N/A       79  40  25 SE3G9      N/A
* DENTON       N/A       84  45  26 E6         N/A
* JUDITH GAP   N/A       79  49  35 S9         N/A
* LOMA         N/A       81  47  30 E4G9       N/A
$$

MTZ017>020-022>027-061-062-172100-
NORTHEAST MONTANA
CITY           SKY/WX    TMP DP  RH WIND       PRES   REMARKS
GLASGOW        SUNNY     75  48  39 SE12      29.87F
GLENDIVE       PTCLDY    73  48  41 E14       29.93S
JORDAN         SUNNY     82  45  27 S9        29.86F
SIDNEY         PTCLDY    77  43  30 SE10      29.93F
WOLF POINT     SUNNY     81  46  29 S9G18     29.89F
* BEAVER HILL  N/A       69  49  49 E17        N/A
* CIRCLE       N/A       78  51  39 SE7G14     N/A
* LINDSAY DVD  N/A       73  51  46 NE13       N/A
* NAVAJO       N/A       75  41  30 S12G20     N/A
* SACO         N/A       76  49  39 SE12G20    N/A
$$

MTZ028>042-056>058-172100-
SOUTHCENTRAL AND SOUTHEAST MONTANA
CITY           SKY/WX    TMP DP  RH WIND       PRES   REMARKS
BAKER          PTSUNNY   70  48  46 N/A       29.96R
BILLINGS       PTCLDY    84  45  26 SW9       29.90F
LIVINGSTON     SUNNY     82  46  28 N7        29.94F
MILES CITY     PTCLDY    79  48  34 VRB3      29.88F
* LAUREL APT   SUNNY     84  46  26 N/A        N/A
* ROUNDUP APT  SUNNY     82  48  31 N/A        N/A
* ALZADA       N/A       81  47  30 E7         N/A
* HYSHAM       N/A       80  44  28 W4G10      N/A
* LAME DEER    N/A       79  45  30 SW9        N/A
* REED POINT   N/A       84  51  32 N2         N/A
* ROSCOE HILL  N/A       78  37  23 NE2G10     N/A
$$

REGIONAL REPORTS...DAKOTAS
CITY           SKY/WX    TMP DP  RH WIND       PRES   REMARKS
WILLISTON      PTCLDY    79  41  26 SE13      29.94S
DICKINSON      CLOUDY    68  46  45 E14       29.95F
BEACH          N/A       66  46  49 E12       29.96S
CROSBY         SUNNY     66  48  52 E12G22    29.97F
TIOGA          SUNNY     73  39  29 SE12      30.00S
WATFORD CITY   SUNNY     75  39  27 SE12G21   29.93F
BISMARCK       PTCLDY    75  48  39 S7        29.97S
GRAND FORKS    PTCLDY    64  50  61 N13       30.01S
FARGO          SUNNY     73  48  41 N9        29.96S
BUFFALO SD     PTCLDY    75  52  45 E12       29.90R
RAPID CITY     PTCLDY    75  48  39 S5        29.95F
$$

REGIONAL REPORTS...WYOMING/IDAHO/WASHINGTON
CITY           SKY/WX    TMP DP  RH WIND       PRES   REMARKS
GILLETTE       SUNNY     82  41  23 N/A       29.96F
SHERIDAN       PTCLDY    82  46  28 CALM      29.94F
CODY           PTCLDY    81  45  28 NE8       29.98F
YELLOWSTONE LA PTCLDY    64  45  50 E5        30.22F
SALMON         CLOUDY    70  45  41 N3        29.95F
MULLAN PASS    PTSUNNY   70  41  35 CALM      30.00S
SAND POINT     PTCLDY    73  46  38 E3        29.80F
SPOKANE        PTSUNNY   77  43  30 NE3       29.79F

$$



USA.gov is the U.S. government's official web portal to all federal, state and local government web resources and services.